| time (UTC) | temp F | wind direction | speed knots | gust knots | rain 1hr in | rain 24hr in | rain mn in | humidity % | barometer mb |
| 20260506044545 | 0 | 0.0 | 0.0 | 0.00 | 0.02 | 0.01 | 1013.6 | ||
| 20260506043039 | 0 | 0.0 | 0.0 | 0.00 | 0.02 | 0.01 | 1013.9 | ||
| 20260506041535 | 0 | 0.0 | 0.0 | 0.00 | 0.02 | 0.01 | 1013.9 | ||
| 20260506040030 | 0 | 0.0 | 0.0 | 0.00 | 0.02 | 0.01 | 1013.9 | ||
| 20260506034526 | 0 | 0.0 | 0.0 | 0.00 | 0.02 | 0.01 | 1013.9 | ||
| 20260506033021 | 0 | 0.0 | 0.0 | 0.00 | 0.02 | 0.01 | 1013.9 | ||
| 20260506031516 | 0 | 0.0 | 0.0 | 0.00 | 0.02 | 0.01 | 1013.7 | ||
| 20260506030014 | 0 | 0.0 | 0.0 | 0.00 | 0.02 | 0.01 | 1013.6 | ||
| 20260506024507 | 0 | 0.0 | 0.0 | 0.00 | 0.02 | 0.01 | 1013.8 | ||
| 20260506023002 | 34 | 311 | 0.0 | 0.0 | 0.00 | 0.02 | 0.01 | 95 | 1013.9 |
| 20260506021503 | 34 | 311 | 0.0 | 0.0 | 0.00 | 0.02 | 0.01 | 95 | 1013.9 |
| 20260506020003 | 34 | 311 | 0.0 | 0.0 | 0.00 | 0.02 | 0.01 | 95 | 1013.9 |
| 20260506014502 | 34 | 311 | 0.0 | 0.0 | 0.00 | 0.02 | 0.01 | 95 | 1014.0 |
| 20260506013100 | 34 | 311 | 0.0 | 0.0 | 0.00 | 0.02 | 0.01 | 94 | 1014.1 |
| 20260506011602 | 34 | 312 | 0.0 | 0.0 | 0.00 | 0.02 | 0.01 | 95 | 1014.0 |
| 20260506010058 | 34 | 312 | 0.0 | 0.0 | 0.00 | 0.02 | 0.01 | 94 | 1014.0 |
| 20260506004557 | 34 | 312 | 0.0 | 0.0 | 0.01 | 0.02 | 0.01 | 94 | 1014.0 |
| 20260506003058 | 34 | 312 | 0.0 | 0.0 | 0.01 | 0.02 | 0.01 | 94 | 1014.0 |
| 20260506001606 | 34 | 312 | 0.0 | 0.0 | 0.01 | 0.02 | 0.01 | 94 | 1013.9 |
| 20260506000119 | 33 | 312 | 0.0 | 0.0 | 0.01 | 0.02 | 0.01 | 94 | 1014.0 |
| 20260505234556 | 33 | 312 | 0.0 | 0.0 | 0.00 | 0.01 | 0.00 | 94 | 1014.0 |
| 20260505233054 | 33 | 312 | 0.0 | 0.0 | 0.00 | 0.01 | 0.00 | 93 | 1013.9 |
| 20260505231555 | 33 | 302 | 0.0 | 0.0 | 0.00 | 0.01 | 0.00 | 93 | 1014.0 |
| 20260505230051 | 33 | 302 | 0.0 | 0.0 | 0.00 | 0.01 | 0.00 | 93 | 1014.0 |
| 20260505224550 | 34 | 302 | 0.0 | 0.0 | 0.00 | 0.01 | 0.00 | 93 | 1014.0 |
| 20260505223045 | 34 | 302 | 0.0 | 0.0 | 0.00 | 0.01 | 0.00 | 93 | 1013.9 |
| 20260505221550 | 34 | 302 | 0.0 | 0.0 | 0.00 | 0.01 | 0.00 | 92 | 1013.9 |
| 20260505220048 | 34 | 302 | 0.0 | 0.0 | 0.00 | 0.01 | 0.00 | 92 | 1013.8 |
| 20260505214546 | 35 | 302 | 0.0 | 0.0 | 0.00 | 0.01 | 0.01 | 92 | 1013.7 |
| 20260505213039 | 35 | 302 | 0.0 | 0.0 | 0.00 | 0.01 | 0.01 | 92 | 1013.6 |
| 20260505211607 | 35 | 302 | 0.0 | 0.0 | 0.00 | 0.01 | 0.01 | 92 | 1013.5 |
| 20260505210042 | 35 | 302 | 0.0 | 0.0 | 0.00 | 0.01 | 0.01 | 92 | 1013.4 |
| 20260505204548 | 36 | 302 | 0.0 | 0.0 | 0.00 | 0.01 | 0.01 | 92 | 1013.4 |
| 20260505203035 | 36 | 302 | 0.0 | 0.0 | 0.00 | 0.01 | 0.01 | 92 | 1013.3 |
| 20260505201538 | 36 | 302 | 0.0 | 0.0 | 0.00 | 0.01 | 0.01 | 91 | 1013.3 |
| 20260505200033 | 37 | 302 | 0.0 | 0.0 | 0.00 | 0.01 | 0.01 | 92 | 1013.2 |
| 20260505194532 | 37 | 303 | 0.0 | 0.0 | 0.00 | 0.01 | 0.01 | 92 | 1013.2 |
| 20260505193030 | 37 | 303 | 0.0 | 0.0 | 0.00 | 0.01 | 0.01 | 91 | 1013.0 |
| 20260505191534 | 37 | 303 | 0.0 | 0.0 | 0.00 | 0.01 | 0.01 | 90 | 1012.8 |
| 20260505190027 | 38 | 303 | 0.0 | 0.0 | 0.00 | 0.01 | 0.01 | 89 | 1012.7 |
| 20260505184530 | 39 | 307 | 0.0 | 10.4 | 0.00 | 0.01 | 0.01 | 89 | 1012.5 |
| 20260505183025 | 39 | 215 | 0.0 | 0.0 | 0.00 | 0.01 | 0.01 | 90 | 1012.1 |
| 20260505181524 | 39 | 216 | 0.0 | 0.0 | 0.00 | 0.01 | 0.01 | 89 | 1012.1 |
| 20260505180022 | 40 | 181 | 0.0 | 0.0 | 0.00 | 0.01 | 0.01 | 89 | 1012.2 |
| 20260505174534 | 40 | 151 | 0.0 | 0.0 | 0.00 | 0.01 | 0.01 | 88 | 1012.3 |
| 20260505173022 | 40 | 151 | 0.0 | 0.0 | 0.00 | 0.01 | 0.01 | 88 | 1012.4 |
| 20260505171531 | 40 | 152 | 0.0 | 0.0 | 0.00 | 0.01 | 0.01 | 86 | 1012.3 |
| 20260505170019 | 39 | 199 | 0.0 | 0.0 | 0.00 | 0.01 | 0.01 | 88 | 1012.3 |
| 20260505164521 | 38 | 96 | 0.0 | 0.0 | 0.00 | 0.01 | 0.01 | 89 | 1012.1 |
| 20260505163019 | 38 | 154 | 0.0 | 0.0 | 0.00 | 0.01 | 0.01 | 88 | 1012.2 |
| 20260505161518 | 38 | 193 | 0.0 | 0.0 | 0.00 | 0.01 | 0.01 | 88 | 1012.1 |
| 20260505153032 | 42 | 149 | 0.0 | 0.9 | 0.00 | 0.02 | 0.01 | 76 | 1011.8 |
| 20260505151514 | 41 | 131 | 0.0 | 0.9 | 0.00 | 0.02 | 0.01 | 74 | 1011.8 |
| 20260505124501 | 39 | 165 | 0.0 | 2.6 | 0.00 | 0.02 | 0.01 | 87 | 1012.2 |
| 20260505123108 | 39 | 178 | 0.0 | 1.7 | 0.00 | 0.02 | 0.01 | 88 | 1011.7 |
| 20260505121559 | 39 | 193 | 0.0 | 9.6 | 0.00 | 0.02 | 0.01 | 90 | 1011.6 |
| 20260505120119 | 38 | 128 | 0.0 | 3.5 | 0.00 | 0.02 | 0.01 | 89 | 1011.9 |
| 20260505114557 | 39 | 156 | 0.0 | 0.9 | 0.00 | 0.02 | 0.01 | 86 | 1011.6 |
| 20260505113056 | 39 | 141 | 0.0 | 1.7 | 0.00 | 0.02 | 0.01 | 90 | 1011.4 |
| 20260505111556 | 39 | 74 | 0.0 | 0.9 | 0.00 | 0.02 | 0.01 | 91 | 1011.9 |
| 20260505110109 | 38 | 355 | 0.0 | 0.0 | 0.00 | 0.02 | 0.01 | 92 | 1011.8 |
| 20260505101547 | 36 | 360 | 0.0 | 0.0 | 0.00 | 0.02 | 0.01 | 90 | 1012.0 |
| 20260505100046 | 36 | 36 | 0.0 | 0.0 | 0.00 | 0.02 | 0.01 | 89 | 1012.1 |
| 20260505094545 | 36 | 36 | 0.0 | 0.0 | 0.00 | 0.02 | 0.01 | 89 | 1012.1 |
| 20260505093048 | 36 | 119 | 0.0 | 0.0 | 0.00 | 0.02 | 0.01 | 89 | 1012.0 |
| 20260505091553 | 36 | 119 | 0.0 | 0.0 | 0.01 | 0.02 | 0.01 | 89 | 1012.0 |
| 20260505090044 | 36 | 119 | 0.0 | 0.0 | 0.01 | 0.02 | 0.01 | 88 | 1011.9 |
| 20260505084553 | 37 | 158 | 0.0 | 0.0 | 0.01 | 0.02 | 0.01 | 86 | 1011.8 |
| 20260505083055 | 37 | 143 | 0.0 | 0.0 | 0.01 | 0.02 | 0.01 | 86 | 1011.8 |
| 20260505081543 | 37 | 165 | 0.0 | 0.0 | 0.00 | 0.02 | 0.00 | 87 | 1011.8 |
| 20260505080041 | 37 | 137 | 0.0 | 1.7 | 0.00 | 0.02 | 0.00 | 87 | 1011.8 |
| 20260505074541 | 37 | 146 | 0.0 | 0.9 | 0.00 | 0.02 | 0.00 | 89 | 1011.8 |
| 20260505073047 | 37 | 158 | 0.0 | 0.9 | 0.00 | 0.02 | 0.00 | 90 | 1011.8 |
| 20260505071540 | 37 | 90 | 0.0 | 0.9 | 0.00 | 0.02 | 0.00 | 92 | 1011.8 |
| 20260505070038 | 37 | 77 | 0.0 | 0.9 | 0.00 | 0.02 | 0.00 | 93 | 1011.9 |
| 20260505064546 | 36 | 346 | 0.0 | 0.0 | 0.00 | 0.02 | 0.00 | 94 | 1011.9 |
| 20260505063031 | 0 | 0.0 | 0.0 | 0.00 | 0.02 | 0.00 | 1012.0 | ||
| 20260505061527 | 0 | 0.0 | 0.0 | 0.00 | 0.02 | 0.00 | 1012.1 | ||
| 20260505060022 | 0 | 0.0 | 0.0 | 0.00 | 0.02 | 0.00 | 1012.0 | ||
| 20260505054535 | 0 | 0.0 | 0.0 | 0.00 | 0.02 | 0.00 | 1012.1 | ||
| 20260505053013 | 0 | 0.0 | 0.0 | 0.00 | 0.02 | 0.00 | 1012.1 | ||
| 20260505051511 | 0 | 0.0 | 0.0 | 0.00 | 0.02 | 0.00 | 1011.9 |